Meteo pe oră la Bolshie Karnyshi

Astăzi, 9 Mai, Duminică

Timp Temperatura Precipitaţii Vânt Presiune Umiditate
00:00 +1°C° 0 mm 2 m/s 738 mmHg 91%
01:00 +1°C° 0 mm 2 m/s 739 mmHg 91%
02:00 -1°C° 0 mm 2 m/s 739 mmHg 92%
03:00 -1°C° 0 mm 2 m/s 740 mmHg 92%
04:00 -1°C° 0 mm 2 m/s 740 mmHg 93%
05:00 -1°C° 0 mm 2 m/s 740 mmHg 93%
06:00 +2°C° 0 mm 2 m/s 741 mmHg 87%
07:00 +4°C° 0 mm 2 m/s 741 mmHg 80%
08:00 +7°C° 0 mm 1 m/s 742 mmHg 74%
09:00 +7°C° 0 mm 2 m/s 742 mmHg 67%
10:00 +8°C° 0 mm 2 m/s 742 mmHg 60%
11:00 +10°C° 0 mm 3 m/s 742 mmHg 54%
12:00 +10°C° 0 mm 3 m/s 742 mmHg 51%
13:00 +11°C° 0 mm 3 m/s 742 mmHg 47%
14:00 +12°C° 0 mm 3 m/s 742 mmHg 44%
15:00 +12°C° 0 mm 3 m/s 742 mmHg 46%
16:00 +12°C° 0 mm 3 m/s 742 mmHg 47%
17:00 +12°C° 0 mm 3 m/s 742 mmHg 49%
18:00 +11°C° 0 mm 3 m/s 742 mmHg 55%
19:00 +10°C° 0 mm 3 m/s 742 mmHg 62%
20:00 +9°C° 0 mm 3 m/s 742 mmHg 68%
21:00 +9°C° 0 mm 3 m/s 742 mmHg 67%
22:00 +8°C° 0 mm 3 m/s 742 mmHg 66%
23:00 +7°C° 0 mm 4 m/s 742 mmHg 66%

Mâine, 10 Mai, Luni

Timp Temperatura Precipitaţii Vânt Presiune Umiditate
00:00 +7°C° 0 mm 4 m/s 742 mmHg 66%
01:00 +7°C° 0 mm 4 m/s 742 mmHg 66%
02:00 +7°C° 0 mm 4 m/s 742 mmHg 66%
03:00 +6°C° 0 mm 4 m/s 742 mmHg 69%
04:00 +6°C° 0 mm 4 m/s 742 mmHg 73%
05:00 +5°C° 0 mm 4 m/s 742 mmHg 76%
06:00 +6°C° 0 mm 4 m/s 743 mmHg 74%
07:00 +8°C° 0 mm 4 m/s 743 mmHg 71%
08:00 +10°C° 0 mm 5 m/s 743 mmHg 68%
09:00 +12°C° 0 mm 5 m/s 743 mmHg 64%
10:00 +14°C° 0 mm 5 m/s 743 mmHg 60%
11:00 +16°C° 0 mm 6 m/s 743 mmHg 56%
12:00 +16°C° 0 mm 6 m/s 743 mmHg 54%
13:00 +17°C° 0 mm 6 m/s 743 mmHg 53%
14:00 +17°C° 0 mm 6 m/s 743 mmHg 51%
15:00 +17°C° 0 mm 6 m/s 743 mmHg 54%
16:00 +17°C° 0 mm 5 m/s 743 mmHg 57%
17:00 +17°C° 0 mm 5 m/s 742 mmHg 60%
18:00 +15°C° 0 mm 5 m/s 743 mmHg 66%
19:00 +13°C° 0 mm 4 m/s 743 mmHg 72%
20:00 +12°C° 0 mm 4 m/s 743 mmHg 78%
21:00 +11°C° 0 mm 4 m/s 743 mmHg 78%
22:00 +10°C° 0 mm 4 m/s 743 mmHg 78%
23:00 +10°C° 0 mm 4 m/s 743 mmHg 77%

Poimâine, 11 Mai, Marţi

Timp Temperatura Precipitaţii Vânt Presiune Umiditate
00:00 +8°C° 0 mm 4 m/s 743 mmHg 78%
01:00 +8°C° 0 mm 4 m/s 743 mmHg 80%
02:00 +7°C° 0 mm 4 m/s 743 mmHg 81%
03:00 +7°C° 0 mm 4 m/s 743 mmHg 81%
04:00 +6°C° 0 mm 4 m/s 743 mmHg 81%
05:00 +6°C° 0 mm 4 m/s 743 mmHg 81%
06:00 +8°C° 0 mm 5 m/s 743 mmHg 76%
07:00 +9°C° 0 mm 5 m/s 743 mmHg 71%
08:00 +11°C° 0 mm 6 m/s 743 mmHg 66%
09:00 +13°C° 0 mm 6 m/s 743 mmHg 60%
10:00 +14°C° 0 mm 6 m/s 743 mmHg 55%
11:00 +16°C° 0 mm 7 m/s 743 mmHg 49%
12:00 +16°C° 0 mm 7 m/s 743 mmHg 48%
13:00 +17°C° 0 mm 7 m/s 743 mmHg 47%
14:00 +17°C° 0 mm 7 m/s 743 mmHg 45%
15:00 +17°C° 0 mm 6 m/s 742 mmHg 49%
16:00 +17°C° 0 mm 6 m/s 742 mmHg 52%
17:00 +17°C° 0 mm 5 m/s 741 mmHg 55%
18:00 +15°C° 0 mm 5 m/s 741 mmHg 60%
19:00 +13°C° 0 mm 4 m/s 741 mmHg 65%
20:00 +11°C° 0 mm 4 m/s 741 mmHg 71%
21:00 +11°C° 0 mm 4 m/s 741 mmHg 72%
22:00 +10°C° 0 mm 4 m/s 741 mmHg 74%
23:00 +8°C° 0 mm 4 m/s 741 mmHg 75%

12 Mai, Miercuri

Timp Temperatura Precipitaţii Vânt Presiune Umiditate
00:00 +8°C° 0 mm 4 m/s 741 mmHg 79%
01:00 +7°C° 0 mm 4 m/s 740 mmHg 83%
02:00 +8°C° 0 mm 3 m/s 740 mmHg 87%
03:00 +8°C° 0 mm 3 m/s 740 mmHg 90%
04:00 +8°C° 0 mm 3 m/s 740 mmHg 92%
05:00 +8°C° 0 mm 3 m/s 740 mmHg 95%
06:00 +10°C° 0 mm 4 m/s 740 mmHg 88%
07:00 +11°C° 0 mm 4 m/s 740 mmHg 82%
08:00 +13°C° 0 mm 5 m/s 740 mmHg 76%
09:00 +14°C° 0 mm 5 m/s 740 mmHg 71%
10:00 +16°C° 0 mm 5 m/s 739 mmHg 65%
11:00 +17°C° 0 mm 5 m/s 739 mmHg 60%
12:00 +16°C° 0.1 mm 5 m/s 738 mmHg 66%
13:00 +16°C° 0.1 mm 5 m/s 738 mmHg 72%
14:00 +15°C° 0.1 mm 5 m/s 737 mmHg 77%
15:00 +15°C° 0.1 mm 4 m/s 737 mmHg 79%
16:00 +14°C° 0.1 mm 4 m/s 737 mmHg 81%
17:00 +14°C° 0.1 mm 4 m/s 736 mmHg 82%
18:00 +12°C° 0.9 mm 4 m/s 736 mmHg 86%
19:00 +11°C° 0.9 mm 4 m/s 737 mmHg 89%
20:00 +8°C° 0.9 mm 5 m/s 737 mmHg 93%
21:00 +8°C° 0 mm 5 m/s 737 mmHg 93%
22:00 +7°C° 0 mm 5 m/s 737 mmHg 94%
23:00 +6°C° 0 mm 5 m/s 737 mmHg 94%

13 Mai, Joi

Timp Temperatura Precipitaţii Vânt Presiune Umiditate
00:00 +6°C° 0 mm 4 m/s 737 mmHg 94%
01:00 +6°C° 0 mm 4 m/s 736 mmHg 95%
02:00 +6°C° 0 mm 4 m/s 736 mmHg 96%
03:00 +6°C° 0 mm 4 m/s 736 mmHg 95%
04:00 +7°C° 0 mm 4 m/s 736 mmHg 95%
05:00 +7°C° 0 mm 4 m/s 735 mmHg 95%
06:00 +7°C° 0 mm 4 m/s 735 mmHg 94%
07:00 +9°C° 0 mm 3 m/s 734 mmHg 94%
08:00 +9°C° 0 mm 3 m/s 734 mmHg 93%
09:00 +9°C° 0.3 mm 3 m/s 733 mmHg 94%
10:00 +9°C° 0.3 mm 3 m/s 733 mmHg 94%
11:00 +9°C° 0.3 mm 3 m/s 732 mmHg 94%
12:00 +9°C° 1 mm 3 m/s 732 mmHg 94%
13:00 +9°C° 1 mm 3 m/s 732 mmHg 94%
14:00 +9°C° 1 mm 3 m/s 731 mmHg 94%
15:00 +9°C° 0.3 mm 3 m/s 731 mmHg 92%
16:00 +9°C° 0.3 mm 3 m/s 731 mmHg 90%
17:00 +9°C° 0.3 mm 3 m/s 731 mmHg 89%
18:00 +9°C° 0.3 mm 2 m/s 731 mmHg 90%
19:00 +9°C° 0.3 mm 2 m/s 731 mmHg 91%
20:00 +9°C° 0.3 mm 2 m/s 731 mmHg 92%
21:00 +9°C° 0.1 mm 3 m/s 731 mmHg 92%
22:00 +7°C° 0.1 mm 4 m/s 731 mmHg 92%
23:00 +7°C° 0.1 mm 4 m/s 731 mmHg 93%

14 Mai, Vineri

Timp Temperatura Precipitaţii Vânt Presiune Umiditate
00:00 +7°C° 0 mm 4 m/s 731 mmHg 94%
01:00 +6°C° 0 mm 4 m/s 731 mmHg 96%
02:00 +5°C° 0 mm 4 m/s 731 mmHg 97%
03:00 +7°C° 0 mm 3 m/s 731 mmHg 96%
04:00 +7°C° 0 mm 3 m/s 731 mmHg 95%
05:00 +7°C° 0 mm 2 m/s 731 mmHg 94%
06:00 +8°C° 0 mm 2 m/s 731 mmHg 92%
07:00 +9°C° 0 mm 2 m/s 731 mmHg 90%
08:00 +9°C° 0 mm 2 m/s 732 mmHg 88%
09:00 +12°C° 0 mm 2 m/s 732 mmHg 84%
10:00 +12°C° 0 mm 3 m/s 732 mmHg 81%
11:00 +13°C° 0 mm 3 m/s 732 mmHg 77%
12:00 +13°C° 0.1 mm 3 m/s 732 mmHg 77%
13:00 +13°C° 0.1 mm 3 m/s 732 mmHg 76%
14:00 +14°C° 0.1 mm 3 m/s 732 mmHg 76%
15:00 +14°C° 0.1 mm 3 m/s 732 mmHg 77%
16:00 +14°C° 0.1 mm 3 m/s 732 mmHg 79%
17:00 +14°C° 0.1 mm 3 m/s 732 mmHg 80%
18:00 +14°C° 0 mm 2 m/s 732 mmHg 84%
19:00 +13°C° 0 mm 2 m/s 732 mmHg 88%
20:00 +12°C° 0 mm 1 m/s 732 mmHg 92%
21:00 +11°C° 0 mm 1 m/s 732 mmHg 93%
22:00 +11°C° 0 mm 1 m/s 732 mmHg 93%
23:00 +10°C° 0 mm 1 m/s 732 mmHg 94%
Arată mai mult

Formular de consimțământ

Meteoprog și furnizorii noștri de servicii pot stoca și accesa date personale, precum cookies, identificatori de dispozitiv sau alte tehnologii similare pe dispozitivul dumneavoastră și procesa astfel de date pentru a personaliza conținutul și reclamele, dar și pentru a oferi caracteristici de social media și pentru a analiza traficul.

  • Stocarea și/sau accesarea informațiilor pe dispozitivul dumneavoastră

    Cookies, identificatori de dispozitiv sau alte informații pot fi stocate sau accesate pe dispozitiv în scopurile indicate mai sus.

  • Reclame și conținut personalizat, evaluarea reclamelor și a conținutului, informații despre audiențe și dezvoltarea produselor

    Reclamele și conținutul pot fi personalizate pe baza unui profil. Pot fi adăugate date suplimentare pentru a personaliza mai bine reclamele și conținutul. Performanța reclamelor și conținutului poate fi măsurată. Pot fi obținute informații despre utilizatorii care au văzut reclamele și conținutul. Aceste date pot fi utilizate pentru a dezvolta sau îmbunătăți experiența utilizatorilor, sistemele și software-ul.

Dând clic pe ‘Sunt de acord’, permiteți utilizarea cookie-urilor menționate, a identificatorilor de dispozitiv, balizelor web sau altor tehnologii similare. Setările pot fi modificate din browser-ul dispozitivului dumneavoastră.

În anumite scopuri, interesele legitime pot prima asupra consimțământului. Puteți citi mai multe informații în acest sens în Politica privind Confidențialitatea Datelor și Cookie.